Regional Weather Roundup
Issued by NWS

Home | Current Version | Previous Version | Text Only | Print | Product List | Glossary Off
Versions: 1 2 3 4 5 6 7 8 9 10 11 12 13 14 15 16 17 18 19 20 21 22 23 24 25 26 27 28 29 30 31 32 33 34 35 36 37 38 39 40 41 42 43 44 45 46 47 48 49 50

000
ASUS43 KTOP 181259
RWRKS

WEATHER ROUNDUP FOR KANSAS
NATIONAL WEATHER SERVICE GOODLAND KS
700 AM CST WED JAN 18 2017

NOTE:  "FAIR" INDICATES FEW OR NO CLOUDS BELOW 12,000 FEET WITH NO
SIGNIFICANT WEATHER AND/OR OBSTRUCTIONS TO VISIBILITY.

KSZ001>006-013>018-027>032-041>047-181400-
NORTHWEST KANSAS

CITY           SKY/WX    TMP DP  RH WIND       PRES   REMARKS
GOODLAND       CLOUDY    22  20  92 W7        29.94S
HAYS           CLOUDY    30  28  92 S8        30.03S
HILL CITY      CLOUDY    29  28  96 CALM      30.00R
RUSSELL        CLEAR     31  28  89 S10       30.02S WCI  22
$$

KSZ061>065-074>080-084>089-181400-
SOUTHWEST KANSAS

CITY           SKY/WX    TMP DP  RH WIND       PRES   REMARKS
DODGE CITY     CLOUDY    39  35  86 S6        30.03R
ELKHART          N/A     40  31  70 W13         N/A  WCI  32
GARDEN CITY    PTCLDY    33  31  92 SW8       30.00F
GREAT BEND     CLEAR     33  29  85 SW8       30.05F
LIBERAL        MOCLDY    37  32  81 SE8       30.03R
$$

KSZ066>073-081>083-090>101-181400-
SOUTHEAST KANSAS

CITY           SKY/WX    TMP DP  RH WIND       PRES   REMARKS
CHANUTE        FOG       32  31  96 SE7       30.16S VSB 1/4
COFFEYVILLE    MOCLDY    31  30  96 E3        30.18R FOG
HUTCHINSON     CLEAR     30  27  88 CALM      30.08R
MEDICINE LODGE   N/A     35  31  85 S3        30.09R
NEWTON         CLEAR     32  30  92 SE7       30.10S
PARSONS        CLEAR     30  28  92 E3        30.18R FOG
WICHITA INTL   PTCLDY    36  31  82 CALM      30.09F
WICHITA JABRA  CLEAR     31  30  96 CALM      30.10F
WINFIELD       CLEAR     33  32  96 SE5       30.13S
$$

KSZ007>012-019>026-033>040-048>060-102>105-181400-
NORTHEAST KANSAS

CITY           SKY/WX    TMP DP  RH WIND       PRES   REMARKS
CONCORDIA      CLOUDY    31  28  89 CALM      30.04F
EMPORIA        CLEAR     28  26  92 S9        30.12R
LAWRENCE       CLOUDY    24  23  96 NE5       30.13F FOG
MANHATTAN      CLOUDY    23  21  92 CALM      30.10S
OLATHE IND     FOG       28  27  96 S5        30.14S VSB 1/4
OLATHE EXE     FOG       28  28 100 S5        30.14S VSB 1/4
SALINA           N/A    N/A N/A N/A MISG        N/A
TOPEKA BILLARD CLOUDY    26  22  84 E3        30.12F
TOPEKA FORBES  CLOUDY    25  23  92 CALM      30.11F
$$




USA.gov is the U.S. government's official web portal to all federal, state and local government web resources and services.